Content
SEND FEEDBACK

Daily
Averages
Monthly
Summary
United States of America

CHICAGO, ILLINOIS


Home > North America > United States > Illinois
Elevation: 674 feet     Latitude: 41 59N     Longitude: 087 54W

WEATHER
 
SELECT A DAY
Number of Records: 194,883;   Date Range: 7/8/95 - 7/29/14
 
SHARE

PRINT THIS DATA

[ ← Previous Day ]
WEATHER ALMANAC - FEBRUARY 17, 2013
[ Next Day → ]
[ °C ]   °F
Weather ElementAverageHighLow
Temperature20.1 °F28.9 °F (2:52 pm)9 °F (3:52 am)
Dewpoint2.8 °F12.9 °F (11:52 pm)-2 °F (11:52 am)
Humidity49.5 %67 % (1:52 am)29 % (2:52 pm)
Barometer30.19 in30.27 in (7:52 am)30.03 in (11:52 pm)
Wind Speed5.1 mph11.5 mph (11:52 pm)
Weather ElementAverage
Visibility10 mi
Wind DirectionSSE (147.5 °)

Weather ElementTotal
Precipitation---
Heating Degree Days46.1 (Base 65)
Averaged from 20 records on February 17, 2013
WEATHER CONDITIONS BREAKOUT
WIND DIRECTION BREAKOUT
WEATHER BY HOUR - FEBRUARY 17, 2013
[ °C ]   °F
Local TimeTemperatureDewpointHumidityBarometerVisibilityWind DirectionWind SpeedGust SpeedPrecipitationEventsConditions
1:52 AM10.0 °F1.0 °F67 %30.22 in10.0 miNNW (330°)4.6 mphClear
2:52 AM10.0 °F0.0 °F64 %30.22 in10.0 miNW (310°)5.8 mphClear
3:52 AM9.0 °F0.0 °F67 %30.22 in10.0 miNW (320°)5.8 mphClear
4:52 AM9.0 °F0.0 °F67 %30.22 in10.0 miNNW (330°)3.5 mphClear
5:52 AM9.0 °F0.0 °F67 %30.25 in10.0 miCalmClear
6:52 AM10.0 °F0.0 °F64 %30.26 in10.0 miCalmClear
7:52 AM12.9 °F1.9 °F62 %30.27 in10.0 miCalmClear
8:52 AM17.1 °F1.0 °F50 %30.26 in10.0 miCalmClear
10:52 AM21.0 °F0.0 °F40 %30.25 in10.0 miCalmClear
11:52 AM23.0 °F-2.0 °F34 %30.24 in10.0 miSouth (180°)3.5 mphClear
12:52 PM25.0 °F0.0 °F34 %30.22 in10.0 miSouth (170°)8.1 mphClear
1:52 PM27.0 °F-0.9 °F30 %30.19 in10.0 miVariable4.6 mphClear
2:52 PM28.9 °F0.0 °F29 %30.17 in10.0 miSouth (180°)5.8 mphClear
3:52 PM28.9 °F1.0 °F30 %30.15 in10.0 miSSE (150°)5.8 mphClear
5:52 PM26.1 °F5.0 °F41 %30.14 in10.0 miSouth (170°)5.8 mphClear
6:52 PM27.0 °F7.0 °F43 %30.13 in10.0 miSouth (170°)8.1 mphClear
7:52 PM26.1 °F9.0 °F49 %30.12 in10.0 miSouth (170°)8.1 mphClear
8:52 PM27.0 °F9.0 °F47 %30.09 in10.0 miSSE (150°)10.4 mphClear
9:52 PM27.0 °F10.9 °F51 %30.10 in10.0 miSSE (160°)10.4 mphClear
11:52 PM28.0 °F12.9 °F53 %30.03 in10.0 miSSE (160°)11.5 mphClear
Hourly data recorded from KPWK, located miles away from Chicago, Illinois







STORIES FROM OUR PARTNERS